Terminal Aerodrome Forecast
Issued by NWS Dallas/Fort Worth, TX

Home | Current Version | Previous Version | Text Only | Print | Product List | Glossary On
Versions: 1 2 3 4 5 6 7 8 9 10 11 12 13 14 15 16 17 18 19 20 21 22 23 24 25 26 27 28 29 30 31
490
FTUS44 KFWD 241459 AAA
TAFACT
TAF AMD
KACT 241459Z 2415/2512 16012KT P6SM BKN022
      TEMPO 2415/2417 BKN018
     FM242100 17014G24KT P6SM BKN035
     FM250600 17013KT P6SM BKN020
     FM250900 18012KT P6SM OVC008=

USA.gov is the U.S. government's official web portal to all federal, state and local government web resources and services.